Location: Torch Lake Township
(45.0753°N, 85.3586°W)
Time: 15:25:46
(UTC-04:00)

Amateur Radio Satellites - All Passes

Search period start: 16 April 2014 14:55
Search period end: 17 April 2014 14:55
Location: Torch Lake Township, 45.0753°N, 85.3586°W

Satellite Date Start Highest point End Downlink Frequencies (MHz)
Time Altitude Azimuth
KITSAT 1 16 Apr 14:56:43 15:03:40 33° 252° (WSW) 15:10:35 435.175 FM
Gurwin Techsat 1B 16 Apr 14:58:02 15:02:43 33° 66° (ENE) 15:07:25 435.225 FM
Saudisat 1A 16 Apr 15:17:30 15:20:03 15° 328° (NNW) 15:22:36 436.775 MHz
AO-27 16 Apr 15:24:19 15:29:21 50° 260° (W) 15:34:25 436.795 MHz FM
OPAL 16 Apr 15:31:46 15:35:40 21° 94° (E) 15:39:33 ?
ITAMSAT 1 16 Apr 15:36:10 15:41:02 40° 262° (W) 15:45:55 435.822 SSB
TMSAT-1 16 Apr 15:47:45 15:52:58 63° 72° (ENE) 15:58:12 436.925 FM
Oscar 19 16 Apr 15:50:32 15:53:55 18° 270° (W) 15:57:20 437.125 CW, 437.150 USB
Oscar 16 16 Apr 15:59:10 16:01:45 14° 272° (W) 16:04:21 437.025 USB, Beacon 2401.1428
AO-7 16 Apr 16:06:45 16:14:21 43° 59° (ENE) 16:21:59 29.400 - 29.500 MHz
JAS-1B 16 Apr 16:13:05 16:21:09 61° 70° (ENE) 16:27:54 435.800 - 435.900 CW/SSB
AO-Echo 16 Apr 16:18:00 16:22:05 23° 267° (W) 16:26:07 ?
Uribyol 2 16 Apr 16:28:14 16:30:54 14° 271° (W) 16:33:34 436.500 FM
Uosat F 16 Apr 16:32:07 16:37:05 63° 72° (ENE) 16:42:04 435.120 FM
Gurwin Techsat 1B 16 Apr 16:37:45 16:42:37 36° 263° (W) 16:47:31 435.225 FM
ISS 16 Apr 16:38:02 16:39:28 12° 132° (SE) 16:40:55 145.800 FM
RS-15 16 Apr 16:54:41 17:05:40 74° 51° (NE) 17:16:51 29.354 - 29.394 USB, Beacon 29.352 USB
OPAL 16 Apr 17:09:47 17:14:53 56° 292° (WNW) 17:19:58 ?
SO-50 16 Apr 17:10:38 17:14:51 42° 118° (ESE) 17:19:07 436.795 FM
TMSAT-1 16 Apr 17:29:43 17:33:20 19° 270° (W) 17:36:58 436.925 FM
AO-7 16 Apr 17:59:05 18:07:02 50° 259° (W) 18:15:02 29.400 - 29.500 MHz
JAS-2 16 Apr 18:01:59 18:03:08 11° 55° (NE) 18:04:17 435.800 - 435.900 CW/SSB, 435.910 FM
JAS-1B 16 Apr 18:05:00 18:11:59 30° 265° (W) 18:18:05 435.800 - 435.900 CW/SSB
ISS 16 Apr 18:12:23 18:15:44 81° 148° (SSE) 18:19:06 145.800 FM
Uosat F 16 Apr 18:13:04 18:16:19 17° 269° (W) 18:19:35 435.120 FM
Hamsat 16 Apr 18:14:24 18:17:51 25° 67° (ENE) 18:21:20 145.90 MHz
UOSAT-12 16 Apr 18:15:08 18:16:33 11° 107° (ESE) 18:17:59 437.025 FM, 437.400 FM
SO-50 16 Apr 18:51:38 18:55:34 29° 318° (NW) 18:59:32 436.795 FM
RS-15 16 Apr 19:07:47 19:17:07 34° 254° (WSW) 19:26:42 29.354 - 29.394 USB, Beacon 29.352 USB
JAS-2 16 Apr 19:41:30 19:47:24 68° 73° (ENE) 19:52:46 435.800 - 435.900 CW/SSB, 435.910 FM
STRAND 1 16 Apr 19:42:48 19:47:12 29° 95° (E) 19:51:34 ?
ISS 16 Apr 19:49:43 19:52:45 30° 348° (NNW) 19:55:48 145.800 FM
Hamsat 16 Apr 19:50:00 19:53:44 31° 264° (W) 19:57:31 145.90 MHz
UOSAT-12 16 Apr 19:51:22 19:55:56 88° 125° (SE) 20:00:38 437.025 FM, 437.400 FM
SO-67 16 Apr 20:11:33 20:15:02 85° 257° (WSW) 20:18:34 435.3500 MHz FM
HO-68 16 Apr 20:12:41 20:17:48 22° 53° (NE) 20:22:55 435.675 MHz FM
Saudisat 1A 16 Apr 20:21:10 20:24:55 26° 41° (NE) 20:28:38 436.775 MHz
Oscar 11 16 Apr 21:17:03 21:19:16 14° 61° (ENE) 21:21:29 145.825 FM, Beacon 2401.500 USB
STRAND 1 16 Apr 21:21:46 21:26:28 38° 293° (WNW) 21:31:09 ?
ISS 16 Apr 21:27:12 21:30:09 27° 8° (N) 21:33:06 145.800 FM
JAS-2 16 Apr 21:29:04 21:32:56 18° 268° (W) 21:36:36 435.800 - 435.900 CW/SSB, 435.910 FM
UOSAT-12 16 Apr 21:33:30 21:36:46 19° 326° (NW) 21:40:03 437.025 FM, 437.400 FM
HO-68 16 Apr 21:57:29 22:04:38 88° 253° (WSW) 22:11:51 435.675 MHz FM
Saudisat 1A 16 Apr 22:00:29 22:04:45 47° 241° (WSW) 22:08:56 436.775 MHz
FUNcube-1 16 Apr 22:32:38 22:36:07 26° 67° (ENE) 22:39:35 145.950 - 145.970 MHz USB
Oscar 11 16 Apr 22:50:39 22:54:56 67° 258° (WSW) 22:59:15 145.825 FM, Beacon 2401.500 USB
ISS 16 Apr 23:03:56 23:07:18 72° 27° (NNE) 23:10:39 145.800 FM
MaSat-1 16 Apr 23:38:30 23:41:24 60° 299° (WNW) 23:44:00 437.345 MHz
HO-68 16 Apr 23:48:58 23:53:19 17° 272° (W) 23:57:41 435.675 MHz FM
SO-50 17 Apr 00:00:39 00:03:23 15° 32° (NNE) 00:06:07 436.795 FM
FUNcube-1 17 Apr 00:08:43 00:12:28 30° 264° (W) 00:16:11 145.950 - 145.970 MHz USB
ISS 17 Apr 00:41:20 00:43:44 18° 225° (SW) 00:46:08 145.800 FM
PCSat 17 Apr 00:58:51 01:01:37 14° 103° (ESE) 01:04:23 145.825 MHz
SO-50 17 Apr 01:40:10 01:44:48 69° 52° (NE) 01:49:29 436.795 FM
Sapphire 17 Apr 01:54:12 01:59:11 39° 113° (ESE) 02:04:13 437.095 MHz 1200 baud AX-25 AFSK
Oscar 19 17 Apr 02:19:34 02:23:16 19° 91° (E) 02:26:57 437.125 CW, 437.150 USB
Oscar 16 17 Apr 02:26:58 02:31:09 24° 93° (E) 02:35:19 437.025 USB, Beacon 2401.1428
PCSat 17 Apr 02:38:50 02:44:15 87° 302° (WNW) 02:49:43 145.825 MHz
UOSAT-12 17 Apr 02:39:36 02:43:27 24° 39° (NE) 02:47:16 437.025 FM, 437.400 FM
AO-Echo 17 Apr 02:45:24 02:47:29 13° 88° (E) 02:49:32 ?
OPAL 17 Apr 02:48:20 02:53:05 45° 66° (ENE) 02:57:57 ?
Uribyol 2 17 Apr 02:57:02 03:01:10 24° 93° (E) 03:05:17 436.500 FM
Gurwin Techsat 1B 17 Apr 03:15:23 03:15:48 10° 86° (E) 03:16:13 435.225 FM
SO-50 17 Apr 03:21:59 03:24:52 16° 250° (WSW) 03:27:47 436.795 FM
KITSAT 1 17 Apr 03:31:57 03:38:52 32° 107° (ESE) 03:45:48 435.175 FM
AO-27 17 Apr 03:35:11 03:40:13 50° 100° (E) 03:45:14 436.795 MHz FM
Sapphire 17 Apr 03:37:40 03:42:39 36° 312° (NW) 03:47:40 437.095 MHz 1200 baud AX-25 AFSK
ITAMSAT 1 17 Apr 03:46:35 03:51:44 62° 102° (ESE) 03:56:50 435.822 SSB
Oscar 10/S400 17 Apr 03:55:53 04:16:00 32° 133° (SE) 05:41:14 145.825 - 145.975 CW/USB, Beacon 145.810 USB
Oscar 19 17 Apr 03:57:53 04:03:00 59° 289° (WNW) 04:08:05 437.125 CW, 437.150 USB
TMSAT-1 17 Apr 04:02:21 04:06:21 21° 92° (E) 04:10:19 436.925 FM
Oscar 16 17 Apr 04:05:46 04:10:44 47° 291° (WNW) 04:15:41 437.025 USB, Beacon 2401.1428
UOSAT-12 17 Apr 04:19:19 04:24:00 63° 238° (WSW) 04:28:38 437.025 FM, 437.400 FM
AO-Echo 17 Apr 04:22:02 04:26:54 76° 286° (WNW) 04:31:36 ?
PCSat 17 Apr 04:24:38 04:28:29 19° 322° (NW) 04:32:21 145.825 MHz
OPAL 17 Apr 04:28:08 04:32:11 24° 264° (W) 04:36:18 ?
Uribyol 2 17 Apr 04:35:56 04:40:53 47° 291° (WNW) 04:45:49 436.500 FM
Uosat F 17 Apr 04:39:08 04:42:14 16° 90° (E) 04:45:19 435.120 FM
Gurwin Techsat 1B 17 Apr 04:51:18 04:56:38 78° 103° (ESE) 05:01:57 435.225 FM
AO-27 17 Apr 05:15:21 05:19:26 24° 298° (WNW) 05:23:30 436.795 MHz FM
KITSAT 1 17 Apr 05:25:41 05:33:45 66° 308° (NW) 05:41:52 435.175 FM
Sapphire 17 Apr 05:26:41 05:27:45 11° 335° (NNW) 05:28:51 437.095 MHz 1200 baud AX-25 AFSK
ITAMSAT 1 17 Apr 05:27:06 05:30:46 20° 300° (WNW) 05:34:26 435.822 SSB
TMSAT-1 17 Apr 05:41:27 05:46:36 54° 289° (WNW) 05:51:45 436.925 FM
JAS-1B 17 Apr 05:46:29 05:52:13 74° 104° (ESE) 05:58:00 435.800 - 435.900 CW/SSB
AO-7 17 Apr 05:57:48 06:05:53 52° 102° (ESE) 06:13:56 29.400 - 29.500 MHz
AO-Echo 17 Apr 06:03:50 06:04:47 11° 305° (NW) 06:05:44 ?
Uosat F 17 Apr 06:16:32 06:21:30 65° 288° (WNW) 06:26:26 435.120 FM
Gurwin Techsat 1B 17 Apr 06:32:41 06:35:58 17° 302° (WNW) 06:39:15 435.225 FM
STRAND 1 17 Apr 07:00:33 07:05:30 51° 70° (ENE) 07:10:27 ?
RS-15 17 Apr 07:21:28 07:31:20 37° 107° (ESE) 07:40:53 29.354 - 29.394 USB, Beacon 29.352 USB
KITSAT 1 17 Apr 07:24:32 07:30:51 24° 333° (NNW) 07:37:10 435.175 FM
Hamsat 17 Apr 07:33:21 07:37:27 39° 97° (E) 07:41:32 145.90 MHz
JAS-1B 17 Apr 07:38:39 07:42:17 17° 304° (NW) 07:45:52 435.800 - 435.900 CW/SSB
AO-7 17 Apr 07:50:56 07:58:30 41° 301° (WNW) 08:06:05 29.400 - 29.500 MHz
AO-40 17 Apr 07:57:39 10:40:05 20° 136° (SE) 12:01:41 Beacon 2401.320
MaSat-1 17 Apr 07:59:50 08:02:29 37° 59° (ENE) 08:05:32 437.345 MHz
JAS-2 17 Apr 08:32:27 08:37:34 47° 100° (E) 08:43:05 435.800 - 435.900 CW/SSB, 435.910 FM
STRAND 1 17 Apr 08:41:05 08:44:58 22° 267° (W) 08:48:52 ?
Sapphire 17 Apr 08:57:49 09:00:22 13° 30° (NNE) 09:02:54 437.095 MHz 1200 baud AX-25 AFSK
SO-67 17 Apr 09:07:16 09:10:47 90° 329° (NNW) 09:14:17 435.3500 MHz FM
Hamsat 17 Apr 09:09:52 09:13:13 22° 294° (WNW) 09:16:34 145.90 MHz
KITSAT 1 17 Apr 09:24:55 09:29:46 16° 4° (N) 09:34:35 435.175 FM
HO-68 17 Apr 09:25:01 09:28:58 15° 87° (E) 09:32:54 435.675 MHz FM
RS-15 17 Apr 09:31:40 09:42:55 71° 310° (NW) 09:53:54 29.354 - 29.394 USB, Beacon 29.352 USB
MaSat-1 17 Apr 09:39:49 09:40:46 11° 251° (WSW) 09:41:45 437.345 MHz
PCSat 17 Apr 09:42:07 09:46:26 23° 41° (NE) 09:50:43 145.825 MHz
AO-7 17 Apr 09:46:56 09:49:03 11° 325° (NW) 09:51:11 29.400 - 29.500 MHz
JAS-2 17 Apr 10:18:14 10:22:30 26° 296° (WNW) 10:26:59 435.800 - 435.900 CW/SSB, 435.910 FM
Oscar 11 17 Apr 10:37:11 10:40:19 19° 92° (E) 10:43:27 145.825 FM, Beacon 2401.500 USB
Sapphire 17 Apr 10:39:50 10:45:08 50° 52° (NE) 10:50:23 437.095 MHz 1200 baud AX-25 AFSK
HO-68 17 Apr 11:10:30 11:17:44 81° 106° (ESE) 11:24:56 435.675 MHz FM
KITSAT 1 17 Apr 11:21:31 11:28:23 29° 33° (NNE) 11:35:12 435.175 FM
PCSat 17 Apr 11:24:59 11:30:24 73° 241° (WSW) 11:35:47 145.825 MHz
RS-15 17 Apr 11:48:03 11:57:35 31° 340° (NNW) 12:07:01 29.354 - 29.394 USB, Beacon 29.352 USB
FUNcube-1 17 Apr 11:55:19 11:59:20 40° 98° (E) 12:03:23 145.950 - 145.970 MHz USB
Saudisat 1A 17 Apr 12:09:13 12:12:59 27° 115° (ESE) 12:16:46 436.775 MHz
Oscar 11 17 Apr 12:12:35 12:16:43 43° 289° (WNW) 12:20:51 145.825 FM, Beacon 2401.500 USB
Sapphire 17 Apr 12:23:48 12:28:16 27° 251° (WSW) 12:32:44 437.095 MHz 1200 baud AX-25 AFSK
HO-68 17 Apr 12:59:17 13:04:40 24° 306° (NW) 13:10:04 435.675 MHz FM
PCSat 17 Apr 13:12:28 13:12:50 10° 259° (W) 13:13:12 145.825 MHz
KITSAT 1 17 Apr 13:16:47 13:24:57 87° 57° (ENE) 13:33:03 435.175 FM
AO-27 17 Apr 13:19:03 13:21:46 14° 57° (ENE) 13:24:28 436.795 MHz FM
ITAMSAT 1 17 Apr 13:29:40 13:32:58 17° 59° (ENE) 13:36:17 435.822 SSB
FUNcube-1 17 Apr 13:32:24 13:35:31 20° 295° (WNW) 13:38:40 145.950 - 145.970 MHz USB
Oscar 19 17 Apr 13:38:11 13:42:46 34° 66° (ENE) 13:47:24 437.125 CW, 437.150 USB
Oscar 16 17 Apr 13:45:46 13:50:34 42° 68° (ENE) 13:55:26 437.025 USB, Beacon 2401.1428
Saudisat 1A 17 Apr 13:48:13 13:52:27 40° 313° (NW) 13:56:41 436.775 MHz
AO-Echo 17 Apr 13:59:11 14:03:20 24° 64° (ENE) 14:07:24 ?
RS-15 17 Apr 14:05:07 14:14:19 29° 15° (NNE) 14:23:32 29.354 - 29.394 USB, Beacon 29.352 USB
Uribyol 2 17 Apr 14:16:43 14:21:35 44° 68° (ENE) 14:26:28 436.500 FM
Gurwin Techsat 1B 17 Apr 14:36:19 14:40:19 22° 61° (ENE) 14:44:19 435.225 FM
JAS-1B 17 Apr 14:45:44 14:50:18 17° 56° (NE) 14:54:28 435.800 - 435.900 CW/SSB
